User: anonymous   Login
Location: Caltech
(34.1382°N, 118.1253°W)
Time: 12:46:37
(UTC-07:00)
Language:

SEDSat Delta rocket - Orbit

View from above orbital plane
View from above orbital plane
View from above satellite
View from above satellite

Ground track
Ground track

The orbit data is extracted from the following two-line orbital elements,

1 25510U 98061C   16119.96042928 +.00000409 +00000-0 +62114-4 0  9996
2 25510 031.4358 355.7081 0328700 008.1389 107.4070 14.36991348918181
Epoch (UTC): 28 April 2016 23:03:01
Eccentricity: 0.0328700
inclination: 31.4358°
perigee height: 533 km
apogee height: 1003 km
right ascension of ascending node: 355.7081°
argument of perigee: 8.1389°
revolutions per day: 14.36991348
mean anomaly at epoch: 107.4070°
orbit number at epoch: 91818

The dashed part of the orbit path shows where the satellite is in the earth's shadow,  

DLR